Simultaneous Nadir Overpasses (SNOs) Predictions

Prediction of SNOs between FY3D and METOP-C Satellite Orbit:

Table of predicted SNOs for the next 14.0 days since TLE Epoch: 1/9/2022
Index Date (FY3D) Time (FY3D) Lat,Lon (FY3D) SZA (FY3D ) Date (METOP-C) Time (METOP-C) Lat,Lon (METOP-C) SZA (METOP-C ) Distance(km) Time Diff (sec)
1 01/09/2022 04:09:13 73.66, 112.06 95.80 01/09/2022 04:07:58 73.63, 112.11 95.79 3.00 75
2 01/09/2022 04:59:55 -73.48, -80.23 84.39 01/09/2022 04:58:42 -73.49, -80.89 84.35 21.00 73
3 01/09/2022 05:50:37 73.28, 87.54 95.39 01/09/2022 05:49:27 73.26, 85.93 95.44 51.66 70
4 01/09/2022 06:41:19 -73.11,-104.77 84.80 01/09/2022 06:40:11 -73.12,-107.05 84.70 73.91 68



Historial Predications of SNOs between FY3D and METOP-C
